Regional Weather Roundup
Issued by NWS

Home | Current Version | Previous Version | Text Only | Print | Product List | Glossary On
Versions: 1 2 3 4 5 6 7 8 9 10 11 12 13 14 15 16 17 18 19 20 21 22 23 24 25 26 27 28 29 30 31 32 33 34 35 36 37 38 39 40 41 42 43 44 45 46 47 48 49 50
361
ASUS43 KFSD 220610
RWRSD

WEATHER ROUNDUP FOR SOUTH DAKOTA
NATIONAL WEATHER SERVICE SIOUX FALLS SD
100 AM CDT FRI SEP 22 2017

NOTE: "FAIR" INDICATES FEW OR NO CLOUDS BELOW 12,000 FEET WITH NO
SIGNIFICANT WEATHER AND/OR OBSTRUCTIONS TO VISIBILITY.


SDZ001>005-009-010-012>017-220700-
NORTHWEST AND NORTH CENTRAL SOUTH DAKOTA

CITY           SKY/WX    TMP DP  RH WIND       PRES   REMARKS
BUFFALO          N/A     53  36  52 N21       29.75F
FAITH            N/A     55  43  63 N21       29.73F
MOBRIDGE       CLEAR     64  52  64 N12       29.69F
$$

SDZ012>016-024>037-041>051-057-063-072>074-220700-
SOUTHWEST AND SOUTH CENTRAL SOUTH DAKOTA

CITY           SKY/WX    TMP DP  RH WIND       PRES   REMARKS
RAPID CTY ARPT NOT AVBL
PIERRE         CLEAR     65  57  75 N7        29.60F
CUSTER         CLEAR     51  37  58 N12G21    29.81S
ELLSWORTH AFB  CLEAR     56  41  57 N21       29.77S
PHILIP         LGT RAIN  63  47  55 N17G26    29.63F
PINE RIDGE     CLEAR     61  42  49 N5        29.68R
SPEARFISH      FAIR      45  39  81 CALM      29.87R
WINNER         FAIR      77  66  68 S18       29.59F
$$

SDZ004>011-016>023-039-040-220700-
NORTHEAST SOUTH DAKOTA

CITY           SKY/WX    TMP DP  RH WIND       PRES   REMARKS
ABERDEEN       CLEAR     66  65  96 E5        29.66F
WATERTOWN      CLEAR     73  72  96 SE5       29.70F
BROOKINGS      CLEAR     74  71  91 SE12      29.72F
SISSETON         N/A     68  66  93 CALM      29.69F
$$

SDZ017-020-022-023-036>040-048>070-220700-
SOUTHEAST SOUTH DAKOTA

CITY           SKY/WX    TMP DP  RH WIND       PRES   REMARKS
SIOUX FALLS    CLEAR     80  73  79 S17       29.72S
HURON          CLEAR     74  71  91 SE9       29.63F
CHAMBERLAIN    CLEAR     72  70  95 E8        29.61S
MITCHELL       CLEAR     79  71  76 S16       29.64S
YANKTON        CLEAR     81  73  76 S21       29.69S
$$

ABBREVIATIONS USED IN REMARKS
   TC - TEMPERATURE IN CELSIUS
  WCI - WIND CHILL INDEX
   HX - HEAT INDEX
  VSB - VISIBILITY





USA.gov is the U.S. government's official web portal to all federal, state and local government web resources and services.